Meknes, Morocco

9:49 AM WEST on August 20, 2017 (GMT +0100)
Meknes

Weather History for GMFM - September, 2013

Change the Weather History Date:

Sunday, September 15, 2013

  Actual Average (GMFF) Record (GMFF)
Temperature  
Mean Temperature 70 °F -  
Max Temperature 82 °F 80 °F 100 °F (2010)
Min Temperature 59 °F 58 °F 50 °F (1999)
Cooling Degree Days 6    
Growing Degree Days 20 (Base 50)    
Moisture  
Dew Point 61 °F    
Average Humidity 72    
Maximum Humidity 94    
Minimum Humidity 39    
Precipitation  
Precipitation 0.00 in 0.04 in - ()
Sea Level Pressure  
Sea Level Pressure 30.02 in    
Wind  
Wind Speed 4 mph ()    
Max Wind Speed 10 mph    
Max Gust Speed -    
Visibility 4.9 miles    
Events      
Averages and records for this station are not official NWS values.
T = Trace of Precipitation, MM = Missing Value Source: Averaged Metar Reports

Daily Weather History Graph

Daily Weather History Graph

Search for Another Location

Airport or City:

Trip Planner

Search our weather history database for the weather conditions in past years. The results will help you decide how hot, cold, wet, or windy it might be!

Date:

Astronomy

Sep. 15, 2013 Rise Set
Actual Time 7:05 AM WEST 7:28 PM WEST
Civil Twilight 6:40 AM WEST 7:53 PM WEST
Nautical Twilight 6:11 AM WEST 8:22 PM WEST
Astronomical Twilight 5:41 AM WEST 8:52 PM WEST
Moon 4:37 PM WEST (9/15) 2:37 AM WEST (9/15)
Length of Visible Light 13h 13m
Length of Day
12h 23m
Waxing Gibbous, 80% of the Moon is Illuminated
Sep 15
Waxing Gibbous
Sep 19
Full
Sep 27
Last Quarter
Oct 5
New
Oct 12
First Quarter

Hourly Weather History & Observations

Time (WEST) Temp. Heat Index Dew Point Humidity Pressure Visibility Wind Dir Wind Speed Gust Speed Precip Events Conditions
12:00 AM 64.4 °F - 62.6 °F 94% 30.12 in 3.7 mi SSE 2.3 mph - N/A   Mostly Cloudy
1:00 AM 65 °F - 59 °F 76% 30.05 in 3 mi SSE 5.8 mph - -   Partly Cloudy
1:00 AM 64.4 °F - 59.0 °F 83% 30.09 in 3.1 mi SSE 5.8 mph - N/A   Mostly Cloudy
2:00 AM 64.4 °F - 59.0 °F 83% 30.09 in 3.1 mi WNW 2.3 mph - N/A   Mostly Cloudy
3:00 AM 64.4 °F - 60.8 °F 88% 30.09 in 3.7 mi WNW 3.5 mph - N/A   Mostly Cloudy
4:00 AM 62.6 °F - 59.0 °F 88% 30.06 in 5.0 mi East 4.6 mph - N/A   Scattered Clouds
6:00 AM 60.8 °F - 57.2 °F 88% 30.04 in - SE 3.5 mph - N/A   Clear
7:00 AM 60 °F - 57 °F 86% 30.03 in 6 mi ESE 4.6 mph - -   Scattered Clouds
7:00 AM 60.8 °F - 57.2 °F 88% 30.06 in - ESE 4.6 mph - N/A   Clear
8:00 AM 64.4 °F - 60.8 °F 88% 30.06 in - ESE 5.8 mph - N/A   Clear
9:00 AM 66.2 °F - 62.6 °F 88% 30.06 in - East 3.5 mph - N/A   Clear
10:00 AM 69 °F - 62 °F 73% 30.00 in 5 mi ENE 5.8 mph - -   Partly Cloudy
10:00 AM 69.8 °F - 62.6 °F 78% 30.06 in 5.0 mi ENE 5.8 mph - N/A   Scattered Clouds
11:00 AM 71.6 °F - 62.6 °F 73% 30.06 in 5.0 mi East 5.8 mph - N/A   Scattered Clouds
12:00 PM 75.2 °F - 62.6 °F 65% 30.06 in 5.0 mi NE 4.6 mph - N/A   Scattered Clouds
1:00 PM - - - % 29.95 in 6 mi North 4.6 mph - -   Partly Cloudy
1:00 PM 77.0 °F - 62.6 °F 61% 30.04 in 5.0 mi North 4.6 mph - N/A   Scattered Clouds
2:00 PM 77.0 °F - 64.4 °F 65% 30.04 in 5.0 mi NW 2.3 mph - N/A   Scattered Clouds
3:00 PM 78.8 °F - 62.6 °F 57% 30.01 in 5.0 mi NNW 4.6 mph - N/A   Scattered Clouds
4:00 PM 82 °F - 61 °F 39% 29.87 in 5 mi North 4.6 mph - -   Partly Cloudy
4:00 PM 82.4 °F 82.9 °F 60.8 °F 48% 29.98 in 5.0 mi North 4.6 mph - N/A   Scattered Clouds
5:00 PM 82.4 °F 82.9 °F 60.8 °F 48% 29.98 in 5.0 mi NNW 5.8 mph - N/A   Scattered Clouds
6:00 PM 80.6 °F 81.5 °F 60.8 °F 51% 29.98 in 5.0 mi NNW 6.9 mph - N/A   Scattered Clouds
7:00 PM 78 °F - 61 °F 47% 29.88 in 5 mi NW 6.9 mph - -   Partly Cloudy
7:00 PM 77.0 °F - 60.8 °F 57% 29.98 in 5.0 mi NW 6.9 mph - N/A   Scattered Clouds
8:00 PM 75.2 °F - 60.8 °F 61% 30.01 in 5.0 mi NW 6.9 mph - N/A   Scattered Clouds
9:00 PM 69.8 °F - 62.6 °F 78% 30.01 in 6.2 mi NW 10.4 mph - N/A   Scattered Clouds
10:00 PM 68 °F - 63 °F 80% 29.96 in 6 mi WNW 5.8 mph - -   Partly Cloudy
10:00 PM 68.0 °F - 62.6 °F 83% 30.04 in 6.2 mi WNW 5.8 mph - N/A   Scattered Clouds
11:00 PM 68.0 °F - 64.4 °F 88% 30.04 in 6.2 mi WNW 6.9 mph - N/A   Scattered Clouds